Погода в Вафандяни

Китай     39°37′59″N   122°00′32″E
темп.,
°C
ветер,
м/с
пор.,
м/с
влажн.,
%
обл.,
%
осадки,
мм/ч
давл.,
гПа
погр.,
м
16 июня, ср
ср1623:00+17вюв119384 0.0 100612
02:00+17в2295100 0.0 100629
05:00+18вюв2791100 0.0 1007206
08:00+22вюв786698 0.0 1007561
11:00+26юв6752100 0.0 10061111
14:00+26ююв6748100 0.0 10061111
17:00+23ююв5660100 0.0 1006708
20:00+20юв41073100 0.0 1006406
17 июня, чт
чт1723:00+19вюв41075100 0.0 1006354
02:00+19вюв1181100 0.1 100535
05:00+18в1187100 0.4 100537
08:00+18вюв2393100 2.1 1005175
11:00+18вюв2394100 3.6 1004245
14:00+18юв2493100 4.9 1003277
17:00+19ююв3490100 0.3 1003334
20:00+17юв359887 0.3 1003167
18 июня, пт
пт1823:00+16юв229898 0.0 100260
02:00+17зсз3695100 0.0 1002327
05:00+17сз129366 0.0 1002231
08:00+21сз25580 0.0 1002711
11:00+25зсз45330 0.0 10011555
14:00+26з68290 0.0 10001414
17:00+25юз69310 0.0 999833
20:00+18ююз35570 0.0 99978
19 июня, сб
сб1923:00+17ююз226012 0.0 99820
02:00+16зюз22660 0.0 99811
05:00+17з11660 0.0 99811
08:00+25ссз24321 0.0 998317
11:00+31зсз361811 0.0 9981574
14:00+30зсз66217 0.0 9981509
17:00+30зсз222381 0.0 9971138
20:00+21вюв22574 0.0 99819
20 июня, вс
вс2023:00+19юв32580 0.0 99925
02:00+17вюв34640 0.0 99858
05:00+16всв22690 0.0 100016
08:00+25в22421 0.0 1001303
11:00+31всв22252 0.0 10001392
14:00+33зсз14219 0.0 9992682
17:00+26ююв555055 0.0 1000450
20:00+19юв357319 0.0 1001105